Notices

What's New in latest Release from April 7th, 2021:

- Updated Glossary, including Speed of Maximum Gust, and Total Hourly Precipitation

- Updated national and regional climate services offices contacts and prices information

- Addition of station inventory lists for 1981-2010, 1971-2000, and 1961-1990 Normals.

If you haven't already, please take our survey and provide feedback about our website: https://eccc.sondage-survey.ca/f/LanguageSelection.aspx?s=442ca660-fcf1-47c0-95a9-59707d6fd709

Hourly Data Report for April 09, 2018

KENORA A
ONTARIO
Current Station Operator: NAVCAN

49°47'18.000" N
94°21'47.000" W
409.70 m
6034076
71850
YQK

Download Data

Hourly Data (April 2018)
Hourly Data Report for April 9, 2018
TIME
LST
Temp Definition
°C
Dew Point Definition
°C
Rel Hum Definition
%
Precip. Amount Definition
mm

Wind Dir Definition
10's deg

Wind Spd Definition
km/h
Visibility Definition
km
Stn Press Definition
kPa
Hmdx Definition


Wind Chill Definition


Weather Definition


00:00 -7.2 -17.6 43   34 12 24.1 97.05   -13 Mainly Clear
01:00 -8.1 -18.4 44   34 12 24.1 97.09   -14 LegendNANA
02:00 -8.4 -18.9 43   34 13 24.1 97.08   -14 LegendNANA
03:00 -8.8 -18.4 47   33 14 24.1 97.10   -15 Mainly Clear
04:00 -9.8 -18.9 48   34 14 24.1 97.13   -16 LegendNANA
05:00 -10.8 -19.0 52   32 15 24.1 97.17   -18 LegendNANA
06:00 -11.2 -18.9 53   32 18 24.1 97.23   -19 Mainly Clear
07:00 -10.6 -18.5 53   32 14 24.1 97.27   -17 LegendNANA
08:00 -9.2 -17.4 52   32 13 24.1 97.29   -15 LegendNANA
09:00 -6.9 -16.6 46   33 15 24.1 97.32   -13 Mainly Clear
10:00 -5.3 -17.7 37   33 16 24.1 97.34   -11 LegendNANA
11:00 -3.5 -15.5 39   31 13 24.1 97.36   -8 LegendNANA
12:00 -3.0 -16.9 34   32 17 24.1 97.32   -9 Mainly Clear
13:00 -1.9 -16.1 33   34 17 24.1 97.29   -7 LegendNANA
14:00 -0.9 -15.8 32   26 16 24.1 97.24   -6 LegendNANA
15:00 -0.6 -15.8 31   34 18 24.1 97.21   -6 Mostly Cloudy
16:00 -0.2 -15.4 31   31 13 24.1 97.19   -4 LegendNANA
17:00 0.0 -15.2 31   30 16 24.1 97.17   -5 LegendNANA
18:00 -0.2 -15.4 31   30 14 24.1 97.15   -4 Mainly Clear
19:00 -1.3 -15.3 34   30 8 24.1 97.14   -4 LegendNANA
20:00 -1.9 -15.2 36   28 4 24.1 97.15   -3 LegendNANA
21:00 -3.0 -14.2 42   25 6 24.1 97.16   -5 Clear
22:00 -3.1 -14.0 43   29 7 24.1 97.12   -6 LegendNANA
23:00 -4.6 -13.2 51   22 6 24.1 97.10   -7 LegendNANA

Notes on Data Quality.

Legend

  • E = Estimated
  • M = Missing
  • NA = Not Available*
  • [empty] = Indicates an unobserved value
Date modified: